WetterOnline ( https://www.wetteronline.de )

Wetter aktuell Quitzow

Aktuelles Wetter: Seehausen (23m)

6-stündlich | Neueste Meldungen
Ortszeit Temperatur Wetter
So, 21.04. 20:00 19.0° C leicht bewölkt
So, 21.04. 14:00 20.5° C wolkenlos
So, 21.04. 8:00 5.6° C leicht bewölkt
So, 21.04. 2:00 3.9° C wolkenlos
Sa, 20.04. 20:00 14.7° C fast wolkenlos
Sa, 20.04. 14:00 18.0° C fast wolkenlos
Sa, 20.04. 8:00 5.4° C wolkenlos
Sa, 20.04. 2:00 4.5° C wolkenlos
Ortszeit Temperatur Wetter
So, 21.04. 21:30 12.0° C fast wolkenlos
So, 21.04. 21:20 12.0° C fast wolkenlos
So, 21.04. 21:10 12.6° C leicht bewölkt
So, 21.04. 21:00 13.7° C wolkig
So, 21.04. 20:50 13.7° C wolkig
So, 21.04. 20:40 14.0° C wolkig
So, 21.04. 20:30 16.8° C wolkig
So, 21.04. 20:00 19.0° C leicht bewölkt
So, 21.04. 19:30 20.0° C wolkig
So, 21.04. 19:00 20.6° C leicht bewölkt
So, 21.04. 18:30 21.0° C wolkig
Ortszeit Relative Feuchte Sichtweite
So, 21.04. 20:00 30% 50 km
So, 21.04. 14:00 26% 50 km
So, 21.04. 8:00 68% 40 km
So, 21.04. 2:00 75% 45 km
Sa, 20.04. 20:00 47% 65 km
Sa, 20.04. 14:00 31% 30 km
Sa, 20.04. 8:00 65% 35 km
Sa, 20.04. 2:00 66% 50 km
Ortszeit Relative Feuchte Sichtweite
So, 21.04. 21:30 50% 60 km
So, 21.04. 21:20 50% -
So, 21.04. 21:10 48% -
So, 21.04. 21:00 45% 60 km
So, 21.04. 20:50 45% -
So, 21.04. 20:40 44% -
So, 21.04. 20:30 36% 55 km
So, 21.04. 20:00 30% 50 km
So, 21.04. 19:30 26% 70 km
So, 21.04. 19:00 23% 70 km
So, 21.04. 18:30 24% 70 km
Ortszeit Niederschlagsmenge Niederschlagsart
So, 21.04. 20:00 0.0 l/m2 in 12 Std. -
So, 21.04. 14:00 0.0 l/m2 in 6 Std. -
So, 21.04. 8:00 0.0 l/m2 in 12 Std. -
So, 21.04. 2:00 0.0 l/m2 in 6 Std. -
Sa, 20.04. 20:00 0.0 l/m2 in 12 Std. -
Sa, 20.04. 14:00 0.0 l/m2 in 6 Std. -
Sa, 20.04. 8:00 0.0 l/m2 in 12 Std. -
Sa, 20.04. 2:00 0.0 l/m2 in 6 Std. -
Ortszeit Niederschlagsmenge Niederschlagsart
So, 21.04. 21:30 0.0 l/m2 in 1 Std. -
So, 21.04. 21:20 keine Meldung -
So, 21.04. 21:10 keine Meldung -
So, 21.04. 21:00 0.0 l/m2 in 1 Std. -
So, 21.04. 20:50 keine Meldung -
So, 21.04. 20:40 keine Meldung -
So, 21.04. 20:30 0.0 l/m2 in 1 Std. -
So, 21.04. 20:00 0.0 l/m2 in 1 Std. -
So, 21.04. 19:30 0.0 l/m2 in 1 Std. -
So, 21.04. 19:00 0.0 l/m2 in 1 Std. -
So, 21.04. 18:30 0.0 l/m2 in 1 Std. -
Ortszeit Stärke Spitze Richtung
km/h Bft. km/h Grad Sektor
So, 21.04. 20:00 7 2 22 90° O
So, 21.04. 14:00 11 2 25 150° SO
So, 21.04. 8:00 2 1 4 340° N
So, 21.04. 2:00 4 1 18 300° NW
Sa, 20.04. 20:00 13 3 22 30° NO
Sa, 20.04. 14:00 9 2 19 20° N
Sa, 20.04. 8:00 6 1 11 20° N
Sa, 20.04. 2:00 4 1 32 360° N
Ortszeit Stärke Spitze Richtung
km/h Bft. km/h Grad Sektor
So, 21.04. 21:30 0 0 4 - -
So, 21.04. 21:20 2 1 - 350° N
So, 21.04. 21:10 2 1 - 350° N
So, 21.04. 21:00 0 0 11 - -
So, 21.04. 20:50 0 0 - 310° NW
So, 21.04. 20:40 0 0 - 70° O
So, 21.04. 20:30 4 1 11 110° O
So, 21.04. 20:00 7 2 13 90° O
So, 21.04. 19:30 9 2 13 100° O
So, 21.04. 19:00 7 2 18 110° O
So, 21.04. 18:30 7 2 14 90° O
Ortszeit Untergrenze Bedeckung Gattung
total tief tief mittel hoch
So, 21.04. 20:00 10500 m 8/8 0/8 - - -
So, 21.04. 14:00 - 0/8 0/8 - - -
So, 21.04. 8:00 10500 m 6/8 0/8 - - -
So, 21.04. 2:00 - 0/8 0/8 - - -
Sa, 20.04. 20:00 10500 m 1/8 0/8 - - -
Sa, 20.04. 14:00 8100 m 1/8 0/8 - - -
Sa, 20.04. 8:00 - 0/8 0/8 - - -
Sa, 20.04. 2:00 - 0/8 0/8 - - -
Ortszeit Bedeckungsgrad in Achtel und Wolkenuntergrenze
So, 21.04. 21:30 2(10500m)
So, 21.04. 21:20 2(10500m)
So, 21.04. 21:10 5(10500m)
So, 21.04. 21:00 8(10500m)
So, 21.04. 20:50 8(10500m)
So, 21.04. 20:40 8(10500m)
So, 21.04. 20:30 8(10500m)
So, 21.04. 20:00 8(10500m)
So, 21.04. 19:30 8(10500m)
So, 21.04. 19:00 8(10500m)
So, 21.04. 18:30 8(10500m)
Ortszeit Luftdruck NN (hPa) Tendenz (hPa in 3 Std.)
So, 21.04. 20:00 1020 - 1,5
So, 21.04. 14:00 1023 - 2,2
So, 21.04. 8:00 1026 - 0,8
So, 21.04. 2:00 1028 - 0,9
Sa, 20.04. 20:00 1028 - 1,0
Sa, 20.04. 14:00 1031 - 1,3
Sa, 20.04. 8:00 1033 + 0,1
Sa, 20.04. 2:00 1033 + 0,2
Ortszeit Luftdruck NN (hPa) Tendenz (hPa in 3 Std.)
So, 21.04. 21:30 1020 - 0,3
So, 21.04. 21:20 1020 keine Meldung
So, 21.04. 21:10 1020 keine Meldung
So, 21.04. 21:00 1020 - 0,7
So, 21.04. 20:50 1020 keine Meldung
So, 21.04. 20:40 1020 keine Meldung
So, 21.04. 20:30 1020 - 1,1
So, 21.04. 20:00 1020 - 1,5
So, 21.04. 19:30 1020 - 1,6
So, 21.04. 19:00 1020 - 1,8
So, 21.04. 18:30 1020 - 1,8
Ortszeit Schneehöhe (cm)
So, 21.04. 20:00 0
So, 21.04. 14:00 0
So, 21.04. 8:00 0
So, 21.04. 2:00 0
Sa, 20.04. 20:00 0
Sa, 20.04. 14:00 0
Sa, 20.04. 8:00 0
Sa, 20.04. 2:00 0
Ortszeit Schneehöhe (cm)
So, 21.04. 21:30 0
So, 21.04. 21:20 0
So, 21.04. 21:10 0
So, 21.04. 21:00 0
So, 21.04. 20:50 0
So, 21.04. 20:40 0
So, 21.04. 20:30 0
So, 21.04. 20:00 0
So, 21.04. 19:30 0
So, 21.04. 19:00 0
So, 21.04. 18:30 0
Link zu dieser Seite / Seite empfehlen

Das Wetter in ...